Location: Cisewo
(53.3833°N, 14.9000°E)
Time: 12:03:27
(UTC+00:00)

CZ-2C R/B - Pass Details

Date: 18 April 2021
Orbit: 784 x 871 km, 98.2° (Epoch: 14 May)

Event Time Altitude Azimuth Distance (km) Brightness Sun altitude
Rises 18:45:29 0° 12° (NNE) 3,289 6.0 -6.1°
Reaches altitude 10° 18:47:50 10° 8° (N) 2,357 5.3 -6.4°
Maximum altitude 18:52:54 56° 292° (WNW) 941 3.5 -7.1°
Drops below altitude 10° 18:57:59 10° 215° (SW) 2,366 5.1 -7.7°
Sets 19:00:21 0° 212° (SSW) 3,302 5.8 -8.0°
